QPF
0.00 0.01 0.02 0.04 0.08 0.11 0.11 0.11 0.09 0.05 0.03 0.04 0.03 0.04 0.05 0.06 0.06 0.05 0.04 0.04 0.03 0.03 0.02 0.02 0.01 0.01 0.01 0.00 0.00 0.00 0.00 0.00 0.00 0.00 0.00 0.00 0.00 0.00 0.00 0.00 0.00 0.00 0.00
0.00 0.00 0.01 0.02 0.06 0.08 0.07 0.06 0.05 0.06 0.06 0.06 0.08 0.09 0.10 0.11 0.10 0.09 0.08 0.08 0.06 0.05 0.04 0.03 0.02 0.01 0.01 0.00 0.00 0.00 0.00 0.00 0.00 0.00 0.00 0.00 0.00 0.00 0.00 0.00 0.00 0.00 0.00
0.00 0.00 0.00 0.01 0.04 0.05 0.05 0.06 0.08 0.10 0.12 0.14 0.16 0.15 0.15 0.14 0.11 0.10 0.11 0.10 0.09 0.07 0.05 0.04 0.03 0.02 0.01 0.00 0.00 0.00 0.00 0.00 0.00 0.00 0.00 0.00 0.00 0.00 0.00 0.00 0.00 0.00 0.00
0.00 0.00 0.00 0.00 0.02 0.04 0.08 0.09 0.13 0.16 0.20 0.26 0.27 0.23 0.19 0.15 0.16 0.16 0.15 0.12 0.11 0.08 0.06 0.04 0.03 0.02 0.01 0.01 0.00 0.00 0.00 0.00 0.00 0.00 0.00 0.00 0.00 0.00 0.00 0.00 0.00 0.00 0.00
0.00 0.00 0.00 0.01 0.03 0.07 0.11 0.15 0.18 0.21 0.28 0.32 0.34 0.31 0.24 0.20 0.19 0.16 0.14 0.13 0.11 0.09 0.06 0.04 0.03 0.02 0.01 0.00 0.00 0.00 0.00 0.00 0.00 0.00 0.00 0.00 0.00 0.00 0.00 0.00 0.00 0.00 0.00
0.00 0.00 0.01 0.03 0.07 0.10 0.16 0.20 0.24 0.26 0.30 0.34 0.32 0.24 0.21 0.21 0.20 0.17 0.15 0.12 0.09 0.07 0.05 0.04 0.03 0.02 0.01 0.00 0.00 0.00 0.00 0.00 0.00 0.00 0.00 0.00 0.00 0.00 0.00 0.00 0.00 0.00 0.00
0.01 0.01 0.02 0.04 0.08 0.13 0.19 0.25 0.26 0.24 0.23 0.20 0.17 0.16 0.17 0.17 0.15 0.12 0.09 0.07 0.06 0.04 0.03 0.02 0.01 0.01 0.00 0.00 0.00 0.00 0.00 0.00 0.00 0.00 0.00 0.00 0.00 0.00 0.00 0.00 0.00 0.00 0.00
0.01 0.02 0.04 0.07 0.13 0.18 0.21 0.22 0.18 0.13 0.09 0.08 0.09 0.11 0.11 0.11 0.09 0.07 0.05 0.03 0.02 0.01 0.01 0.01 0.01 0.00 0.00 0.00 0.00 0.00 0.00 0.00 0.00 0.00 0.00 0.00 0.00 0.00 0.00 0.00 0.00 0.00 0.00
0.02 0.04 0.07 0.11 0.15 0.16 0.15 0.11 0.08 0.06 0.04 0.04 0.04 0.04 0.05 0.05 0.05 0.04 0.03 0.02 0.01 0.01 0.01 0.00 0.00 0.00 0.00 0.00 0.00 0.00 0.00 0.00 0.00 0.00 0.00 0.00 0.00 0.00 0.00 0.00 0.01 0.01 0.01
0.05 0.07 0.11 0.12 0.10 0.09 0.08 0.06 0.04 0.04 0.03 0.02 0.02 0.02 0.03 0.03 0.03 0.03 0.03 0.02 0.01 0.01 0.00 0.00 0.00 0.00 0.00 0.00 0.00 0.00 0.00 0.00 0.00 0.00 0.00 0.00 0.00 0.00 0.00 0.01 0.01 0.01 0.01
0.07 0.09 0.10 0.09 0.07 0.07 0.06 0.04 0.02 0.02 0.02 0.01 0.02 0.02 0.03 0.03 0.03 0.02 0.02 0.01 0.01 0.00 0.00 0.00 0.00 0.00 0.00 0.00 0.00 0.00 0.00 0.00 0.00 0.00 0.00 0.00 0.00 0.00 0.00 0.00 0.00 0.00 0.01
0.14 0.16 0.14 0.11 0.09 0.06 0.04 0.03 0.02 0.01 0.01 0.01 0.02 0.02 0.02 0.03 0.02 0.02 0.01 0.01 0.01 0.00 0.00 0.00 0.00 0.00 0.00 0.00 0.00 0.00 0.00 0.00 0.00 0.00 0.00 0.00 0.00 0.00 0.00 0.00 0.00 0.00 0.00
0.25 0.24 0.18 0.10 0.06 0.03 0.02 0.01 0.01 0.01 0.01 0.01 0.02 0.02 0.01 0.01 0.01 0.01 0.01 0.01 0.00 0.00 0.00 0.00 0.01 0.01 0.01 0.01 0.00 0.00 0.00 0.00 0.00 0.00 0.00 0.00 0.00 0.00 0.00 0.00 0.00 0.00 0.00
0.20 0.15 0.10 0.06 0.04 0.02 0.01 0.01 0.01 0.01 0.01 0.01 0.01 0.01 0.01 0.01 0.01 0.01 0.01 0.01 0.01 0.01 0.01 0.01 0.01 0.01 0.00 0.00 0.00 0.00 0.00 0.00 0.00 0.00 0.00 0.00 0.00 0.00 0.00 0.00 0.00 0.00 0.00
0.10 0.09 0.07 0.05 0.03 0.02 0.01 0.01 0.01 0.01 0.01 0.01 0.01 0.02 0.02 0.02 0.02 0.02 0.02 0.03 0.03 0.03 0.02 0.02 0.02 0.01 0.00 0.00 0.00 0.00 0.00 0.00 0.00 0.00 0.00 0.00 0.00 0.01 0.01 0.02 0.01 0.02 0.02
0.08 0.07 0.06 0.04 0.03 0.02 0.01 0.01 0.01 0.01 0.02 0.03 0.04 0.04 0.04 0.04 0.04 0.04 0.04 0.04 0.03 0.03 0.02 0.01 0.00 0.00 0.00 0.00 0.00 0.00 0.00 0.00 0.00 0.00 0.00 0.00 0.00 0.00 0.01 0.02 0.03 0.04 0.04
0.03 0.03 0.03 0.03 0.02 0.02 0.02 0.03 0.04 0.05 0.06 0.07 0.07 0.07 0.06 0.06 0.06 0.05 0.04 0.03 0.02 0.01 0.00 0.00 0.00 0.00 0.00 0.00 0.00 0.00 0.00 0.00 0.00 0.00 0.00 0.00 0.00 0.00 0.01 0.01 0.01 0.02 0.02
0.01 0.01 0.01 0.02 0.02 0.03 0.04 0.05 0.06 0.07 0.08 0.09 0.09 0.09 0.08 0.07 0.06 0.04 0.03 0.01 0.01 0.00 0.00 0.00 0.00 0.00 0.00 0.00 0.00 0.00 0.00 0.00 0.00 0.00 0.00 0.00 0.00 0.00 0.01 0.01 0.01 0.01 0.01
0.00 0.01 0.01 0.02 0.02 0.04 0.05 0.06 0.08 0.10 0.11 0.11 0.09 0.07 0.05 0.04 0.03 0.02 0.01 0.00 0.00 0.00 0.00 0.00 0.00 0.00 0.00 0.00 0.00 0.00 0.00 0.00 0.00 0.00 0.00 0.00 0.00 0.01 0.01 0.01 0.02 0.01 0.01
0.01 0.01 0.01 0.02 0.04 0.05 0.05 0.06 0.08 0.08 0.07 0.06 0.04 0.03 0.02 0.01 0.01 0.00 0.00 0.00 0.00 0.00 0.00 0.00 0.00 0.00 0.00 0.00 0.00 0.00 0.00 0.00 0.00 0.00 0.00 0.00 0.01 0.01 0.01 0.01 0.02 0.02 0.02
0.01 0.01 0.01 0.02 0.03 0.03 0.03 0.04 0.04 0.03 0.02 0.02 0.01 0.00 0.00 0.00 0.00 0.00 0.00 0.00 0.00 0.00 0.00 0.00 0.00 0.00 0.00 0.00 0.00 0.00 0.00 0.00 0.00 0.00 0.01 0.01 0.01 0.01 0.01 0.01 0.02 0.03 0.03
0.01 0.01 0.01 0.02 0.02 0.02 0.01 0.01 0.01 0.01 0.00 0.00 0.00 0.00 0.00 0.00 0.00 0.00 0.00 0.00 0.00 0.00 0.00 0.00 0.00 0.00 0.00 0.00 0.00 0.00 0.00 0.00 0.00 0.01 0.01 0.01 0.01 0.01 0.02 0.01 0.02 0.03 0.03
0.02 0.01 0.01 0.01 0.01 0.01 0.01 0.00 0.00 0.00 0.00 0.01 0.01 0.00 0.00 0.00 0.00 0.00 0.00 0.00 0.00 0.00 0.00 0.00 0.00 0.00 0.00 0.00 0.00 0.00 0.00 0.00 0.01 0.02 0.02 0.02 0.02 0.02 0.02 0.02 0.02 0.02 0.02
0.01 0.01 0.01 0.00 0.00 0.00 0.00 0.00 0.00 0.00 0.00 0.01 0.01 0.01 0.01 0.00 0.00 0.00 0.00 0.00 0.00 0.00 0.00 0.00 0.00 0.00 0.00 0.00 0.00 0.00 0.00 0.00 0.01 0.01 0.02 0.02 0.02 0.02 0.02 0.02 0.02 0.02 0.02
0.01 0.01 0.00 0.00 0.00 0.00 0.00 0.00 0.00 0.00 0.01 0.01 0.01 0.01 0.00 0.00 0.00 0.00 0.00 0.00 0.00 0.00 0.00 0.00 0.00 0.00 0.00 0.00 0.00 0.01 0.01 0.01 0.01 0.01 0.01 0.01 0.01 0.02 0.02 0.02 0.02 0.02 0.02
0.01 0.01 0.00 0.00 0.00 0.00 0.00 0.00 0.00 0.00 0.00 0.00 0.00 0.00 0.00 0.00 0.00 0.00 0.00 0.00 0.00 0.00 0.00 0.00 0.00 0.00 0.00 0.00 0.00 0.01 0.01 0.01 0.02 0.01 0.01 0.01 0.02 0.03 0.03 0.03 0.03 0.03 0.03
MSLP
1006.16 1006.20 1006.33 1006.55 1006.82 1007.16 1007.58 1008.08 1008.68 1009.38 1010.16 1011.00 1011.87 1012.71 1013.48 1014.16 1014.74 1015.21 1015.61 1015.96 1016.29 1016.63 1017.00 1017.38 1017.78 1018.15 1018.49 1018.77 1018.98 1019.11 1019.19 1019.24 1019.26 1019.28 1019.30 1019.32 1019.31 1019.28 1019.19 1019.06 1018.89 1018.68 1018.48
1005.38 1005.54 1005.79 1006.10 1006.46 1006.84 1007.29 1007.81 1008.44 1009.18 1010.03 1010.95 1011.91 1012.84 1013.70 1014.44 1015.06 1015.55 1015.95 1016.30 1016.63 1016.97 1017.35 1017.76 1018.18 1018.58 1018.93 1019.22 1019.42 1019.54 1019.61 1019.65 1019.67 1019.71 1019.76 1019.80 1019.84 1019.84 1019.78 1019.66 1019.48 1019.26 1019.03
1004.62 1004.92 1005.33 1005.79 1006.26 1006.73 1007.24 1007.80 1008.45 1009.23 1010.11 1011.08 1012.09 1013.07 1013.98 1014.76 1015.39 1015.90 1016.30 1016.63 1016.96 1017.30 1017.68 1018.10 1018.52 1018.92 1019.27 1019.55 1019.73 1019.85 1019.91 1019.95 1019.99 1020.05 1020.14 1020.23 1020.31 1020.36 1020.33 1020.23 1020.07 1019.84 1019.59
1004.08 1004.53 1005.11 1005.73 1006.34 1006.92 1007.49 1008.09 1008.76 1009.53 1010.41 1011.37 1012.37 1013.36 1014.27 1015.05 1015.69 1016.19 1016.59 1016.92 1017.24 1017.57 1017.95 1018.35 1018.76 1019.15 1019.49 1019.75 1019.92 1020.02 1020.08 1020.12 1020.19 1020.28 1020.41 1020.55 1020.68 1020.76 1020.77 1020.70 1020.54 1020.31 1020.04
1003.94 1004.54 1005.27 1006.05 1006.78 1007.46 1008.08 1008.69 1009.35 1010.08 1010.90 1011.81 1012.75 1013.68 1014.55 1015.30 1015.92 1016.40 1016.79 1017.12 1017.43 1017.77 1018.13 1018.52 1018.92 1019.29 1019.60 1019.84 1020.00 1020.09 1020.15 1020.20 1020.28 1020.40 1020.55 1020.73 1020.89 1021.00 1021.03 1020.97 1020.81 1020.57 1020.28
1004.31 1005.02 1005.88 1006.77 1007.60 1008.34 1008.99 1009.59 1010.20 1010.85 1011.57 1012.37 1013.20 1014.04 1014.82 1015.51 1016.08 1016.54 1016.92 1017.24 1017.56 1017.89 1018.25 1018.63 1019.01 1019.36 1019.65 1019.87 1020.01 1020.10 1020.15 1020.20 1020.29 1020.41 1020.58 1020.76 1020.93 1021.04 1021.07 1021.00 1020.83 1020.58 1020.28
1005.19 1005.98 1006.91 1007.87 1008.75 1009.51 1010.16 1010.71 1011.24 1011.78 1012.37 1013.03 1013.73 1014.43 1015.10 1015.70 1016.22 1016.64 1017.00 1017.32 1017.63 1017.97 1018.33 1018.71 1019.07 1019.41 1019.68 1019.88 1020.01 1020.08 1020.12 1020.17 1020.24 1020.36 1020.50 1020.67 1020.81 1020.90 1020.91 1020.82 1020.63 1020.36 1020.04
1006.49 1007.30 1008.25 1009.22 1010.10 1010.85 1011.45 1011.94 1012.37 1012.80 1013.26 1013.76 1014.31 1014.87 1015.42 1015.92 1016.36 1016.75 1017.08 1017.40 1017.72 1018.06 1018.42 1018.79 1019.16 1019.48 1019.74 1019.93 1020.04 1020.10 1020.12 1020.15 1020.19 1020.27 1020.37 1020.48 1020.57 1020.62 1020.58 1020.46 1020.24 1019.96 1019.62
1008.01 1008.81 1009.73 1010.65 1011.49 1012.19 1012.74 1013.16 1013.51 1013.83 1014.17 1014.54 1014.95 1015.38 1015.81 1016.21 1016.58 1016.91 1017.23 1017.53 1017.85 1018.19 1018.56 1018.93 1019.29 1019.60 1019.85 1020.03 1020.13 1020.17 1020.17 1020.16 1020.16 1020.18 1020.22 1020.26 1020.28 1020.26 1020.16 1020.00 1019.76 1019.46 1019.12
1009.58 1010.32 1011.16 1012.01 1012.78 1013.41 1013.90 1014.27 1014.56 1014.81 1015.06 1015.34 1015.64 1015.96 1016.29 1016.61 1016.91 1017.19 1017.47 1017.75 1018.07 1018.41 1018.77 1019.14 1019.49 1019.80 1020.04 1020.20 1020.28 1020.30 1020.27 1020.22 1020.17 1020.12 1020.08 1020.04 1019.98 1019.88 1019.73 1019.51 1019.25 1018.94 1018.60
1011.03 1011.68 1012.43 1013.17 1013.85 1014.42 1014.86 1015.20 1015.47 1015.69 1015.91 1016.14 1016.38 1016.63 1016.88 1017.12 1017.36 1017.59 1017.83 1018.09 1018.39 1018.72 1019.07 1019.43 1019.77 1020.06 1020.29 1020.44 1020.50 1020.50 1020.44 1020.34 1020.23 1020.11 1019.99 1019.85 1019.71 1019.53 1019.31 1019.06 1018.77 1018.45 1018.12
1012.29 1012.84 1013.47 1014.11 1014.70 1015.20 1015.62 1015.96 1016.24 1016.48 1016.70 1016.92 1017.14 1017.35 1017.55 1017.74 1017.92 1018.11 1018.31 1018.54 1018.80 1019.11 1019.44 1019.78 1020.10 1020.38 1020.59 1020.72 1020.76 1020.73 1020.63 1020.49 1020.31 1020.12 1019.92 1019.70 1019.47 1019.22 1018.94 1018.64 1018.32 1017.99 1017.66
1013.37 1013.83 1014.34 1014.87 1015.37 1015.83 1016.23 1016.59 1016.90 1017.19 1017.45 1017.70 1017.92 1018.12 1018.29 1018.43 1018.57 1018.71 1018.86 1019.05 1019.28 1019.55 1019.86 1020.17 1020.46 1020.71 1020.90 1021.00 1021.02 1020.96 1020.82 1020.63 1020.40 1020.14 1019.86 1019.56 1019.25 1018.92 1018.58 1018.23 1017.88 1017.53 1017.18
1014.34 1014.71 1015.12 1015.54 1015.97 1016.38 1016.78 1017.16 1017.52 1017.86 1018.17 1018.45 1018.69 1018.89 1019.04 1019.15 1019.25 1019.34 1019.45 1019.60 1019.79 1020.03 1020.30 1020.57 1020.83 1021.05 1021.20 1021.27 1021.25 1021.15 1020.97 1020.73 1020.44 1020.12 1019.77 1019.40 1019.01 1018.61 1018.21 1017.81 1017.41 1017.02 1016.64
1015.31 1015.59 1015.90 1016.23 1016.58 1016.95 1017.34 1017.73 1018.13 1018.51 1018.87 1019.18 1019.43 1019.63 1019.76 1019.85 1019.91 1019.96 1020.03 1020.15 1020.30 1020.50 1020.72 1020.96 1021.17 1021.34 1021.45 1021.47 1021.41 1021.26 1021.04 1020.75 1020.41 1020.03 1019.61 1019.18 1018.72 1018.26 1017.79 1017.33 1016.88 1016.44 1016.02
1016.32 1016.53 1016.76 1017.00 1017.28 1017.60 1017.97 1018.36 1018.77 1019.17 1019.54 1019.86 1020.12 1020.30 1020.42 1020.48 1020.51 1020.53 1020.58 1020.66 1020.78 1020.94 1021.12 1021.31 1021.47 1021.59 1021.63 1021.60 1021.48 1021.28 1021.01 1020.67 1020.27 1019.84 1019.37 1018.88 1018.37 1017.85 1017.32 1016.80 1016.29 1015.79 1015.31
1017.39 1017.56 1017.71 1017.88 1018.09 1018.36 1018.67 1019.04 1019.43 1019.82 1020.18 1020.49 1020.73 1020.90 1020.99 1021.03 1021.04 1021.04 1021.06 1021.12 1021.21 1021.34 1021.48 1021.62 1021.73 1021.78 1021.75 1021.65 1021.47 1021.20 1020.87 1020.48 1020.04 1019.56 1019.05 1018.52 1017.96 1017.39 1016.82 1016.24 1015.68 1015.13 1014.60
1018.49 1018.62 1018.72 1018.83 1018.97 1019.17 1019.43 1019.74 1020.09 1020.44 1020.76 1021.04 1021.25 1021.39 1021.47 1021.49 1021.49 1021.48 1021.49 1021.54 1021.61 1021.71 1021.81 1021.89 1021.93 1021.91 1021.81 1021.63 1021.37 1021.04 1020.65 1020.20 1019.72 1019.21 1018.67 1018.11 1017.53 1016.94 1016.33 1015.72 1015.11 1014.52 1013.95
1019.53 1019.63 1019.69 1019.75 1019.84 1019.98 1020.17 1020.42 1020.70 1020.99 1021.27 1021.50 1021.68 1021.79 1021.85 1021.87 1021.87 1021.87 1021.88 1021.92 1021.98 1022.05 1022.11 1022.14 1022.11 1022.01 1021.83 1021.57 1021.23 1020.83 1020.38 1019.89 1019.37 1018.84 1018.29 1017.72 1017.13 1016.53 1015.91 1015.28 1014.66 1014.05 1013.45
1020.42 1020.52 1020.55 1020.58 1020.62 1020.70 1020.83 1021.02 1021.23 1021.47 1021.69 1021.88 1022.03 1022.13 1022.18 1022.20 1022.21 1022.23 1022.25 1022.29 1022.34 1022.38 1022.39 1022.36 1022.26 1022.09 1021.83 1021.49 1021.08 1020.61 1020.11 1019.58 1019.04 1018.49 1017.94 1017.37 1016.79 1016.20 1015.59 1014.98 1014.35 1013.74 1013.14
1021.13 1021.22 1021.25 1021.25 1021.26 1021.29 1021.37 1021.50 1021.66 1021.84 1022.02 1022.18 1022.31 1022.40 1022.46 1022.51 1022.54 1022.57 1022.60 1022.64 1022.68 1022.69 1022.67 1022.58 1022.42 1022.17 1021.84 1021.43 1020.95 1020.43 1019.89 1019.33 1018.78 1018.22 1017.67 1017.12 1016.56 1015.99 1015.40 1014.80 1014.20 1013.60 1013.02
1021.63 1021.73 1021.75 1021.74 1021.72 1021.73 1021.77 1021.85 1021.97 1022.11 1022.26 1022.41 1022.54 1022.64 1022.72 1022.79 1022.85 1022.90 1022.95 1022.99 1023.01 1022.99 1022.93 1022.79 1022.57 1022.26 1021.87 1021.41 1020.89 1020.33 1019.75 1019.18 1018.61 1018.05 1017.51 1016.97 1016.43 1015.88 1015.32 1014.75 1014.18 1013.60 1013.04
1021.97 1022.07 1022.09 1022.08 1022.04 1022.03 1022.04 1022.09 1022.19 1022.31 1022.45 1022.59 1022.73 1022.85 1022.96 1023.05 1023.13 1023.20 1023.26 1023.30 1023.30 1023.26 1023.16 1022.98 1022.72 1022.37 1021.94 1021.44 1020.90 1020.31 1019.72 1019.13 1018.56 1018.00 1017.46 1016.93 1016.40 1015.87 1015.33 1014.78 1014.23 1013.68 1013.14
1022.21 1022.30 1022.32 1022.30 1022.26 1022.22 1022.22 1022.25 1022.33 1022.44 1022.58 1022.74 1022.89 1023.03 1023.17 1023.29 1023.39 1023.47 1023.52 1023.55 1023.54 1023.47 1023.34 1023.14 1022.85 1022.48 1022.03 1021.53 1020.97 1020.39 1019.79 1019.20 1018.62 1018.06 1017.52 1016.99 1016.46 1015.93 1015.40 1014.86 1014.32 1013.79 1013.27
1022.39 1022.48 1022.49 1022.46 1022.40 1022.36 1022.34 1022.36 1022.43 1022.54 1022.68 1022.84 1023.01 1023.18 1023.33 1023.46 1023.57 1023.65 1023.70 1023.71 1023.68 1023.60 1023.45 1023.23 1022.94 1022.57 1022.14 1021.64 1021.11 1020.54 1019.96 1019.37 1018.79 1018.23 1017.68 1017.13 1016.60 1016.06 1015.52 1014.98 1014.44 1013.91 1013.39
1022.57 1022.64 1022.64 1022.59 1022.52 1022.46 1022.43 1022.43 1022.49 1022.60 1022.74 1022.91 1023.09 1023.27 1023.43 1023.56 1023.67 1023.74 1023.78 1023.77 1023.72 1023.62 1023.47 1023.25 1022.97 1022.63 1022.23 1021.77 1021.27 1020.74 1020.18 1019.62 1019.05 1018.48 1017.92 1017.36 1016.80 1016.25 1015.70 1015.14 1014.59 1014.05 1013.53
Thickness
5811 5809 5805 5802 5796 5790 5785 5781 5776 5771 5764 5755 5747 5737 5728 5723 5718 5715 5711 5705 5700 5695 5689 5683 5678 5674 5670 5665 5662 5659 5655 5652 5650 5647 5645 5645 5644 5640 5637 5633 5629 5625 5621
5802 5802 5800 5795 5792 5787 5782 5777 5774 5767 5759 5751 5742 5733 5722 5713 5708 5705 5701 5696 5691 5686 5679 5673 5667 5662 5658 5653 5650 5646 5641 5638 5635 5631 5628 5624 5625 5624 5623 5619 5615 5609 5605
5802 5801 5797 5793 5788 5782 5777 5773 5766 5758 5750 5742 5732 5722 5712 5703 5696 5692 5688 5684 5680 5675 5669 5662 5656 5650 5646 5641 5637 5633 5629 5623 5620 5618 5613 5608 5604 5602 5606 5602 5597 5592 5588
5801 5799 5796 5790 5784 5778 5772 5766 5757 5749 5741 5734 5725 5716 5705 5695 5688 5683 5677 5673 5669 5664 5658 5651 5645 5639 5634 5629 5625 5620 5616 5612 5606 5602 5599 5594 5589 5585 5583 5583 5579 5575 5571
5795 5793 5791 5786 5778 5771 5763 5755 5746 5737 5730 5722 5714 5704 5694 5687 5680 5674 5669 5663 5658 5652 5647 5640 5634 5628 5622 5617 5612 5608 5604 5599 5594 5589 5584 5579 5574 5568 5563 5561 5560 5558 5555
5785 5781 5778 5773 5765 5758 5749 5741 5732 5723 5716 5709 5703 5695 5687 5680 5672 5666 5660 5654 5648 5641 5636 5629 5623 5616 5611 5606 5601 5596 5592 5587 5582 5577 5571 5565 5559 5553 5547 5543 5541 5540 5539
5773 5767 5761 5755 5748 5741 5734 5726 5718 5708 5701 5695 5690 5685 5679 5672 5665 5658 5652 5645 5637 5630 5625 5618 5611 5605 5600 5595 5590 5585 5580 5575 5570 5564 5559 5553 5547 5541 5535 5530 5527 5525 5523
5755 5751 5745 5739 5731 5724 5716 5710 5703 5696 5689 5683 5677 5672 5667 5660 5654 5649 5643 5636 5628 5620 5613 5607 5600 5594 5589 5584 5579 5573 5568 5563 5557 5553 5547 5540 5535 5529 5523 5517 5512 5511 5509
5735 5731 5726 5720 5713 5706 5698 5691 5686 5680 5676 5671 5665 5659 5654 5648 5642 5636 5630 5623 5615 5608 5601 5594 5588 5582 5577 5572 5566 5560 5555 5550 5544 5538 5533 5527 5522 5516 5510 5504 5497 5491 5494
5717 5713 5708 5702 5695 5689 5683 5676 5670 5664 5659 5656 5652 5646 5640 5634 5627 5621 5614 5607 5601 5594 5587 5581 5575 5569 5564 5558 5552 5545 5540 5534 5528 5523 5517 5512 5507 5501 5495 5489 5482 5474 5470
5700 5696 5691 5686 5681 5674 5670 5662 5654 5648 5643 5640 5636 5631 5625 5619 5612 5606 5599 5592 5585 5579 5573 5567 5561 5555 5548 5541 5534 5528 5522 5517 5511 5506 5501 5496 5491 5485 5479 5472 5465 5458 5450
5684 5679 5674 5669 5664 5659 5656 5649 5642 5633 5628 5625 5621 5615 5610 5604 5596 5589 5583 5577 5570 5564 5558 5552 5545 5537 5529 5522 5516 5510 5504 5499 5494 5489 5485 5480 5475 5469 5462 5456 5449 5442 5434
5666 5661 5656 5652 5647 5642 5637 5632 5626 5619 5614 5609 5604 5598 5592 5586 5579 5573 5566 5560 5554 5547 5541 5534 5526 5518 5511 5504 5499 5493 5488 5482 5477 5473 5469 5464 5459 5454 5448 5442 5435 5428 5423
5651 5645 5639 5636 5631 5625 5621 5615 5608 5603 5597 5592 5586 5580 5573 5567 5561 5554 5548 5542 5536 5529 5523 5516 5508 5500 5494 5488 5483 5478 5472 5467 5463 5459 5454 5450 5445 5441 5436 5431 5424 5418 5413
5638 5631 5625 5620 5614 5608 5602 5596 5590 5584 5579 5573 5566 5559 5554 5548 5541 5535 5529 5523 5517 5511 5505 5498 5491 5485 5479 5474 5468 5462 5458 5453 5449 5445 5442 5438 5435 5432 5427 5423 5417 5412 5408
5621 5615 5608 5602 5595 5589 5583 5577 5570 5564 5559 5553 5546 5540 5534 5528 5522 5516 5510 5504 5498 5493 5487 5481 5475 5470 5465 5459 5454 5449 5443 5439 5435 5433 5430 5427 5425 5422 5419 5415 5412 5409 5406
5603 5596 5589 5582 5575 5569 5564 5558 5551 5545 5539 5533 5527 5521 5515 5509 5503 5498 5491 5486 5481 5476 5470 5465 5460 5454 5450 5445 5440 5435 5430 5426 5423 5421 5419 5418 5416 5414 5411 5409 5408 5407 5406
5582 5575 5569 5562 5556 5550 5545 5539 5533 5527 5521 5514 5508 5503 5497 5491 5485 5480 5475 5469 5465 5460 5455 5450 5445 5440 5436 5431 5426 5422 5418 5414 5413 5411 5410 5409 5409 5408 5406 5406 5406 5407 5408
5560 5555 5549 5544 5539 5533 5528 5522 5515 5509 5503 5498 5492 5487 5481 5475 5470 5464 5459 5454 5450 5445 5441 5436 5431 5426 5422 5418 5414 5411 5406 5404 5403 5403 5404 5404 5404 5404 5403 5404 5406 5408 5410
5542 5537 5532 5528 5522 5516 5511 5505 5499 5493 5488 5483 5477 5472 5466 5461 5455 5450 5445 5441 5436 5431 5427 5422 5417 5413 5409 5406 5403 5400 5397 5395 5396 5398 5399 5401 5401 5402 5403 5404 5406 5409 5410
5525 5521 5516 5511 5505 5501 5496 5489 5484 5478 5474 5469 5464 5458 5453 5448 5442 5437 5432 5426 5422 5416 5412 5407 5404 5401 5398 5396 5394 5392 5390 5389 5391 5393 5396 5398 5400 5402 5404 5405 5407 5409 5410
5508 5504 5500 5494 5490 5486 5481 5475 5470 5466 5462 5457 5451 5445 5440 5436 5430 5423 5418 5413 5408 5403 5398 5394 5392 5390 5389 5388 5387 5386 5386 5386 5387 5390 5393 5396 5399 5403 5406 5408 5410 5411 5412
5494 5489 5485 5480 5476 5473 5469 5464 5460 5456 5451 5444 5438 5433 5428 5423 5417 5411 5405 5400 5395 5390 5386 5383 5382 5381 5382 5381 5381 5382 5383 5384 5386 5389 5392 5396 5401 5404 5408 5410 5412 5413 5413
5481 5477 5474 5469 5466 5463 5460 5456 5452 5448 5441 5434 5427 5422 5416 5411 5405 5400 5395 5390 5385 5381 5378 5376 5375 5375 5376 5375 5375 5376 5379 5382 5385 5389 5393 5398 5402 5405 5408 5411 5413 5414 5414
5471 5468 5464 5461 5458 5455 5452 5449 5444 5439 5432 5425 5419 5413 5407 5401 5396 5392 5387 5384 5380 5376 5373 5371 5370 5370 5371 5370 5370 5371 5375 5379 5383 5388 5393 5397 5401 5405 5408 5411 5413 5415 5416
5465 5462 5459 5455 5452 5448 5444 5441 5436 5431 5423 5415 5409 5403 5398 5393 5389 5385 5381 5380 5377 5374 5372 5370 5368 5367 5367 5367 5369 5372 5376 5380 5384 5389 5392 5396 5400 5403 5406 5410 5413 5416 5417